マクノート彗星

P/2005 J1 ( McNaught )

English version
Home page
Updated on September 25, 2005

---------------------------------------------------------------------

・ プロフィール

発見日 2005年5月3日
発見光度 17.6等
発見者 R. H. McNaught (Siding Spring)

・ 軌道要素

T 2005 Apr. 17.3074 TT                                  MPC
q   1.530155             (2000.0)            P               Q
n   0.1463292      Peri.  338.9237      -0.3245473      +0.7858930
a   3.566554       Node   268.8414      -0.7749511      -0.5399890
e   0.570971       Incl.   31.7662      -0.5423282      +0.3013040
P   6.74
>From 89 observations 2005 May 3-July 9.

・ 星図

・ 光度変化

        m1 = 15.7 + 5 logΔ + 15.0 log r

---------------------------------------------------------------------

軌道要素はM.P.E.C. 2005-N48に掲載されたものです。
星図は StellaNavigator Ver.2.0 for Windows (アストロアーツ 編著 / アスキー出版局刊) で作成したものです。
光度グラフはComet for Windowsで作成したものです。

---------------------------------------------------------------------

Copyright(C) Seiichi Yoshida (comet@aerith.net). All rights reserved.